848  
NZUS01 KABQ 270810  
RWRABQ  
NEW MEXICO REGIONAL WEATHER ROUNDUP  
NATIONAL WEATHER SERVICE ALBUQUERQUE NM  
200 AM MDT THU APR 27 2017  
 
-----NORTHERN NEW MEXICO AND NEARBY AREAS-----  
 
 
CITY SKY/WX TMP DP RH WIND PRES REMARKS
 
ALBUQUERQUE FAIR 55 23 28 SW10 29.76F  
BELEN NOT AVBL  
SOCORRO FAIR 62 21 20 W10G16 29.77F  
 
CITY SKY/WX TMP DP RH WIND PRES REMARKS
 
SANTA FE CLOUDY 41 26 55 W3 29.76F  
LOS ALAMOS PTCLDY 44 18 34 SW6 29.80F  
TAOS N/A 39 21 48 E7 29.78F  
ANGEL FIRE MOCLDY 38 21 49 CALM 29.81F  
FARMINGTON LGT RAIN 48 34 58 CALM 29.74F  
GRANTS NOT AVBL  
GALLUP MOCLDY 52 23 32 SW21G32 29.80F  
FLAGSTAFF MOCLDY 50 25 37 W18G32 29.87R  
DURANGO CLOUDY 42 34 73 SW5 29.76F  
 
CITY SKY/WX TMP DP RH WIND PRES REMARKS
 
ALAMOSA CLOUDY 40 27 59 S10 29.72F  
DENVER CLOUDY 36 31 82 NE7 29.62F  
CLAYTON CLOUDY 41 34 76 SW7 29.74F  
RATON CLOUDY 40 29 64 SW9 29.73F  
LAS VEGAS CLOUDY 41 18 39 VRB6 29.78S  
CLINES CORNERS CLOUDY 44 22 41 W12 29.81  
SANTA ROSA NOT AVBL  
TUCUMCARI CLOUDY 52 43 71 MISG 29.67F  
CLOVIS (AFB) CLOUDY 52 36 54 E9 29.73S  
CLOVIS CLOUDY 50 34 53 SE13 29.74F  
AMARILLO PTCLDY 47 35 63 SE14 29.75F  
 
-----SOUTHERN NEW MEXICO AND NEARBY AREAS-----  
 
 
CITY SKY/WX TMP DP RH WIND PRES REMARKS
 
T OR C CLEAR 61 19 19 CALM 29.79R  
DEMING MOCLDY 61 23 23 W12 29.82F  
TUCSON MOCLDY 71 39 31 S7 29.79F  
EL PASO PTCLDY 71 20 14 W16G30 29.78S  
LAS CRUCES MOCLDY 64 19 18 W22G30 29.81R  
 
CITY SKY/WX TMP DP RH WIND PRES REMARKS
 
ALAMOGORDO CLEAR 59 19 21 S8 29.79R  
ROSWELL CLEAR 53 27 36 SW8 N/A  
CARLSBAD CLEAR 57 25 29 S9 29.71S  
 
CLICK HERE TO GO TO PREVIOUS BULLETINS.

The Nexlab NM Page Main Text Page